Weather observations for the past three days for
Glencoe Municipal Airport
Imperial (Metric)
Date Time (cdt) Wind (mph) Vis. (mi.) Weather Sky Cond. Temperature (ºF) Relative Humidity Wind Chill (°F) Heat Index (°F) Pressure Precipitation (in)
Air Dwpt 6 hour altimeter (in) sea level (mb) 1 hr 3 hr 6 hr
Max. Min.
22 14:55 SW 8 10.00 Partly Cloudy SCT037 SCT045 SCT050 80.4 66 62% 83 29.99 0.0
22 14:35 SW 9 10.00 Partly Cloudy SCT035 SCT045 80.4 66.4 62% 83 30 0.0
22 14:15 Calm 10.00 Partly Cloudy SCT035 SCT040 80.4 66.7 63% 83 30.01 0.0
22 13:55 Calm 10.00 Partly Cloudy SCT037 SCT043 80.4 66 62% 83 30.02 0.0
22 13:35 Calm 10.00 Partly Cloudy SCT034 80.6 67.3 64% 83 30.02 0.0
22 13:15 Calm 10.00 Fair CLR 79.7 66.7 65% 82 30.03 0.0
22 12:55 SW 3 10.00 Fair CLR 79.2 65.7 79.7 63.3 63% 81 30.03 0.0
22 12:35 S 5 10.00 Fair CLR 79.7 66.6 64% 82 30.03 0.0
22 12:15 SW 5 10.00 Fair CLR 78.3 64.8 63% 80 30.04 0.0
22 11:55 SW 6 10.00 Fair CLR 77.5 65.1 66% 79 30.04 0.0
22 11:35 Calm 10.00 Fair CLR 77 64.9 66% 79 30.04 0.0
22 11:15 Calm 10.00 Fair CLR 77 64.6 66% 79 30.04 0.0
22 10:55 Calm 10.00 Fair CLR 76.3 64.6 67% 78 30.05 0.0
22 10:35 SW 3 10.00 Fair CLR 75.4 64.4 69% 77 30.06 0.0
22 10:15 SW 3 10.00 Fair CLR 74.7 63.9 69% 30.06 0.0
22 09:55 Calm 10.00 Fair CLR 73.6 64 72% 30.06 0.0
22 09:35 SW 3 10.00 Fair CLR 72.5 65.3 78% 30.07 0.0
22 09:15 Calm 10.00 Fair CLR 71.4 66.6 85% 30.07 0.0
22 08:55 SW 3 10.00 Fair CLR 70.2 66.6 88% 30.06 0.0
22 08:35 SW 3 10.00 Fair CLR 68.5 65.5 90% 30.06 0.0
22 08:15 Calm 10.00 Fair CLR 67.6 65.8 94% 30.06 0.0
22 07:55 S 3 7.00 Fair CLR 66.2 65.3 97% 30.06 0.0
22 07:35 Calm 7.00 Fair CLR 65.3 64.4 97% 30.06 0.0
22 07:15 Calm 5.00 Fog/Mist CLR 64.4 64 99% 30.07 0.0
22 06:55 Calm 5.00 Fog/Mist CLR 63 62.6 66.2 61 99% 30.07 0.0
22 06:35 Calm 4.00 Fog/Mist CLR 63.1 62.8 99% 30.07 0.0
22 06:15 Calm 2.00 Fog/Mist NULL 62.4 61.9 98% 30.07 0.0
22 05:55 Calm 3.00 Fog/Mist NULL 62.8 62.2 98% 30.07 0.0
22 05:35 Calm 5.00 Fog/Mist CLR 61.2 60.6 98% 30.07 0.0
22 05:15 Calm 5.00 Fog/Mist CLR 62.6 61.9 98% 30.07 0.0
22 04:55 Calm 7.00 Fair CLR 63.7 63.1 98% 30.07 0.0
22 04:35 Calm 5.00 Fog/Mist CLR 63.3 62.6 98% 30.08 0.0
22 04:15 Calm 5.00 Fog/Mist CLR 63.3 62.8 98% 30.07 0.0
22 03:55 Calm 7.00 Fair CLR 63.3 62.6 98% 30.07 0.0
22 03:35 Calm 7.00 Fair CLR 64.2 63.3 97% 30.08 0.0
22 03:15 Calm 7.00 Fair CLR 63.9 63.1 98% 30.08 0.0
22 02:55 Calm 7.00 Fair CLR 64.6 63.9 98% 30.09 0.0
22 02:35 Calm 7.00 Fair CLR 64.8 64.2 98% 30.09 0.0
22 02:15 Calm 7.00 Fair CLR 64.4 63.5 97% 30.09 0.0
22 01:55 Calm 10.00 Fair CLR 64.8 63.9 97% 30.1 0.0
22 01:35 Calm 10.00 Fair CLR 64.6 63.5 96% 30.11 0.0
22 01:15 Calm 10.00 Fair CLR 65.5 64 95% 30.11 0.0
22 00:55 Calm 10.00 Fair CLR 65.8 64.2 72.9 65.8 95% 30.11 0.0
22 00:35 Calm 10.00 Fair CLR 66 64.2 94% 30.11 0.0
22 00:15 Calm 10.00 Fair CLR 66.4 64.6 94% 30.11 0.0
21 23:55 Calm 10.00 Fair CLR 66.4 64 92% 30.11 0.0
21 23:35 Calm 10.00 Fair CLR 67.1 64.8 92% 30.11 0.0
21 23:15 Calm 10.00 Fair CLR 67.1 64.6 92% 30.11 0.0
21 22:55 Calm 10.00 Fair CLR 67.1 64.8 92% 30.1 0.0
21 22:35 Calm 10.00 Fair CLR 67.1 64.8 92% 30.11 0.0
21 22:15 Calm 10.00 Fair CLR 67.6 64.9 91% 30.11 0.0
21 21:55 Calm 10.00 Fair CLR 68 65.5 92% 30.11 0.0
21 21:35 Calm 7.00 Fair CLR 67.6 65.3 92% 30.12 0.0
21 21:15 Calm 7.00 Fair CLR 69.1 66.2 91% 30.11 0.0
21 20:55 Calm 10.00 Fair CLR 70.3 66.2 87% 30.11 0.0
21 20:35 Calm 10.00 Fair CLR 71.1 65.5 83% 30.11 0.0
21 20:15 Calm 10.00 Fair CLR 71.6 66.2 83% 30.11 0.0
21 19:55 Calm 10.00 Fair CLR 72.1 65.5 80% 30.11 0.0
21 19:35 Calm 10.00 Fair CLR 72.7 65.7 79% 30.11 0.0
21 19:15 Calm 10.00 Fair CLR 72.9 64.9 76% 30.1 0.0
21 18:55 Calm 10.00 Fair CLR 72.7 64.9 73.2 68 77% 30.09 0.0
21 18:35 Calm 10.00 Fair CLR 72.7 64.4 75% 30.09 0.0
21 18:15 Calm 10.00 Fair CLR 73.2 64.2 74% 30.1 0.0
21 17:55 Calm 10.00 Fair CLR 72.9 63.9 74% 30.1 0.0
21 17:35 Calm 10.00 Fair CLR 73.2 63.9 73% 30.11 0.0
21 17:15 W 3 10.00 Fair CLR 72.9 63.1 72% 30.12 0.0
21 16:55 SW 3 10.00 Fair CLR 72.5 64 75% 30.12 0.0
21 16:15 Calm 10.00 Fair CLR 70.9 65.5 83% 30.13 0.0
21 15:55 W 3 10.00 Fair CLR 70.3 64.8 83% 30.14 0.0
21 15:35 SW 6 10.00 Fair CLR 71.2 63.5 77% 30.14 0.0
21 15:15 S 6 10.00 Fair CLR 71.2 63.7 77% 30.14 0.0
21 14:55 S 3 10.00 Fair CLR 70.5 63.5 79% 30.15 0.0
21 14:35 Calm 10.00 Fair CLR 68.5 63.9 85% 30.15 0.0
21 14:15 SW 6 10.00 Fair CLR 68 64.4 88% 30.15 0.0
21 13:55 S 8 10.00 Fair CLR 68.9 65.3 88% 30.16 0.0
21 13:35 S 5 10.00 Thunderstorm in Vicinity NULL 69.1 65.8 89% 30.17 0.0
21 12:55 SE 3 10.00 Thunderstorm in Vicinity SCT014 BKN023 OVC050 69.1 65.8 77.2 64.8 89% 30.17 0.0
21 12:35 SE 12 G 16 10.00 Thunderstorm Light Rain OVC013 69.4 67.3 93% 30.17 0.0
21 12:15 S 7 G 14 4.00 Thunderstorm Light Rain in Vicinity BKN013 OVC017 71.8 68.2 88% 30.19 0.0
21 11:55 E 9 10.00 Thunderstorm in Vicinity SCT018 BKN027 OVC120 76.5 69.3 79% 78 30.16 0.0
21 11:35 E 7 10.00 Overcast SCT021 BKN029 OVC120 76.3 66.7 72% 78 30.16 0.0
21 11:15 Calm 10.00 Thunderstorm in Vicinity SCT021 BKN040 BKN095 77.2 69.1 76% 79 30.16 0.0
21 10:55 Calm 10.00 Mostly Cloudy SCT019 BKN095 76.5 68.5 77% 78 30.15 0.0
21 10:35 Calm 10.00 Fair CLR 76.1 68.9 78% 77 30.15 0.0
21 10:15 Calm 10.00 Thunderstorm in Vicinity SCT095 75.2 68.9 81% 76 30.14 0.0
21 09:55 Calm 10.00 Thunderstorm SCT095 74.3 68.9 83% 30.15 0.0
21 09:35 Calm 10.00 Partly Cloudy SCT085 73.2 68.5 85% 30.15 0.0
21 09:15 Calm 10.00 Thunderstorm in Vicinity CLR 72.5 68.9 89% 30.15 0.0
21 08:55 Calm 10.00 Thunderstorm CLR 71.1 68.4 91% 30.15 0.0
21 08:35 Calm 10.00 Fair CLR 70.3 68.2 93% 30.15 0.0
21 08:15 Calm 10.00 Fair CLR 69.3 68 96% 30.15 0.0
21 07:55 Calm 7.00 Fair CLR 67.8 66.9 97% 30.14 0.0
21 07:35 Calm 7.00 Fair CLR 66.7 66 98% 30.14 0.0
21 07:15 Calm 7.00 Fair CLR 65.5 64.6 97% 30.14 0.0
21 06:55 Calm 7.00 Fair CLR 64.6 63.9 68.9 63.5 98% 30.14 0.0
21 06:35 Calm 7.00 Fair CLR 64.2 63.5 98% 30.14 0.0
21 06:15 Calm 10.00 Fair CLR 63.9 63.1 98% 30.13 0.0
21 05:55 Calm 10.00 Fair CLR 63.9 63 97% 30.12 0.0
21 05:35 Calm 10.00 Fair CLR 64.4 63.5 97% 30.12 0.0
21 05:15 Calm 7.00 Fair CLR 64.4 63.5 97% 30.12 0.0
21 04:55 Calm 10.00 Fair CLR 64.6 63.7 97% 30.13 0.0
21 04:35 Calm 10.00 Fair CLR 65.3 64.4 97% 30.13 0.0
21 04:15 Calm 10.00 Fair CLR 65.3 64.2 96% 30.13 0.0
21 03:55 Calm 10.00 Fair CLR 64.9 63.7 96% 30.13 0.0
21 03:35 Calm 10.00 Fair CLR 66.2 64.6 95% 30.13 0.0
21 03:15 Calm 10.00 Fair CLR 66.7 64.9 94% 30.13 0.0
21 02:55 Calm 10.00 Fair CLR 66.6 64.9 95% 30.13 0.0
21 02:35 Calm 10.00 Fair CLR 67.1 65.3 94% 30.13 0.0
21 02:15 Calm 10.00 Fair CLR 67.1 64.9 93% 30.13 0.0
21 01:55 Calm 10.00 Fair CLR 68 65.5 92% 30.13 0.0
21 01:35 Calm 10.00 Fair CLR 68.4 65.5 91% 30.13 0.0
21 01:15 Calm 10.00 Fair CLR 68.7 65.7 90% 30.13 0.0
21 00:55 Calm 10.00 Fair CLR 68.9 65.8 81.5 68.9 90% 30.12 0.0
21 00:35 Calm 10.00 Fair CLR 69.6 66.2 89% 30.12 0.0
21 00:15 Calm 10.00 Fair CLR 70 66.2 88% 30.11 0.0
20 23:55 Calm 10.00 Fair CLR 70.3 66.6 88% 30.11 0.0
20 23:35 Calm 10.00 Fair CLR 70.7 67.1 88% 30.11 0.0
20 22:55 Calm 10.00 Fair CLR 72.1 67.5 85% 30.12 0.0
20 22:35 Calm 10.00 Partly Cloudy SCT070 72.9 67.5 83% 30.13 0.0
20 22:15 Calm 10.00 Partly Cloudy SCT090 73.4 67.3 81% 30.13 0.0
20 21:55 Calm 7.00 Mostly Cloudy BKN100 BKN120 74.5 67.3 78% 30.12 0.0
20 21:35 Calm 1.75 Overcast with Haze OVC110 75.2 67.1 76% 76 30.12 0.0
20 21:15 Calm 10.00 Mostly Cloudy BKN110 75.7 66.4 73% 77 30.11 0.0
20 20:55 Calm 10.00 Mostly Cloudy BKN100 77 66.6 70% 79 30.11 0.0
20 20:35 Calm 10.00 Partly Cloudy SCT080 SCT110 77.5 66.9 70% 79 30.11 0.0
20 20:15 Calm 10.00 Fair CLR 79.2 66.6 65% 81 30.1 0.0
20 19:55 Calm 10.00 Fair CLR 79.2 64.4 61% 81 30.09 0.0
20 19:35 Calm 10.00 Fair CLR 80.1 64.6 59% 82 30.09 0.0
20 19:15 Calm 10.00 Fair CLR 80.8 63.7 56% 82 30.09 0.0
20 18:55 Calm 10.00 Fair CLR 81.5 63.9 82.4 78.3 55% 83 30.09 0.0
20 18:35 Calm 10.00 Fair CLR 81.3 64.4 57% 83 30.08 0.0
20 18:15 Calm 10.00 Fair CLR 81.9 63.5 54% 83 30.08 0.0
20 17:55 Calm 10.00 Fair CLR 81.7 63.7 54% 83 30.08 0.0
20 17:35 Calm 10.00 Fair CLR 82.2 64 54% 84 30.08 0.0
20 17:15 Calm 10.00 Partly Cloudy SCT039 81.3 63.7 55% 83 30.08 0.0
20 16:55 Calm 10.00 Mostly Cloudy BKN039 81.5 64.9 57% 83 30.08 0.0
20 16:35 Calm 10.00 Fair CLR 81.3 65.3 58% 83 30.09 0.0
20 16:15 Calm 10.00 Fair CLR 81.1 64.4 57% 83 30.09 0.0
20 15:55 Calm 10.00 Fair CLR 80.2 65.5 61% 82 30.09 0.0
20 15:35 Calm 10.00 Fair CLR 79.9 64 59% 82 30.1 0.0
20 15:15 Calm 10.00 Partly Cloudy SCT033 SCT039 SCT065 78.8 64.8 62% 81 30.1 0.0
20 14:55 Calm 10.00 Mostly Cloudy BKN031 BKN060 79 66.2 65% 81 30.11 0.0
20 14:35 Calm 10.00 Fair CLR 79.9 64.9 60% 82 30.11 0.0
20 14:15 Calm 10.00 Partly Cloudy SCT035 79.2 65.8 64% 81 30.11 0.0
20 13:55 Calm 10.00 Partly Cloudy SCT050 SCT065 78.8 65.8 65% 81 30.11 0.0
20 13:35 Calm 10.00 Partly Cloudy SCT050 SCT065 78.4 64.2 62% 80 30.12 0.0
20 13:15 Calm 10.00 Partly Cloudy SCT028 SCT034 SCT065 79 64.9 62% 81 30.12 0.0
20 12:55 Calm 10.00 Partly Cloudy SCT028 77.2 64.6 78.6 67.3 65% 79 30.11 0.0
20 12:35 Calm 10.00 Fair CLR 77.9 64.6 64% 80 30.12 0.0
20 12:15 Calm 10.00 Partly Cloudy SCT043 SCT049 77.2 66 69% 79 30.12 0.0
20 11:55 Calm 10.00 Mostly Cloudy SCT027 SCT033 BKN043 76.1 65.8 71% 78 30.12 0.0
20 11:35 Calm 10.00 Mostly Cloudy SCT025 SCT033 BKN048 74.3 65.1 73% 30.12 0.0
20 11:15 Calm 10.00 Mostly Cloudy BKN023 BKN028 BKN037 74.5 65.7 74% 30.12 0.0
20 10:55 Calm 10.00 Mostly Cloudy BKN021 BKN028 73.8 65.1 75% 30.12 0.0
20 10:35 Calm 10.00 Mostly Cloudy SCT021 SCT027 BKN070 73.9 65.3 75% 30.12 0.0
20 10:15 Calm 10.00 Mostly Cloudy SCT016 BKN065 73.4 64.9 75% 30.12 0.0
20 09:55 Calm 10.00 Overcast OVC065 72.9 64.8 76% 30.12 0.0
20 09:35 Calm 10.00 Overcast OVC065 71.2 65.7 83% 30.11 0.0
20 09:15 Calm 10.00 Mostly Cloudy BKN065 71.6 64.8 79% 30.11 0.0
20 08:55 Calm 10.00 Partly Cloudy SCT050 70.2 65.1 84% 30.11 0.0
20 08:35 Calm 10.00 Overcast OVC050 69.4 65.1 86% 30.11 0.0
20 08:15 Calm 10.00 Partly Cloudy SCT050 68.9 64.8 87% 30.11 0.0
20 07:55 Calm 10.00 Partly Cloudy SCT050 68 64.8 89% 30.11 0.0
20 07:35 Calm 10.00 Mostly Cloudy SCT050 BKN070 BKN080 67.8 64.4 89% 30.11 0.0
20 07:15 Calm 10.00 Overcast OVC070 67.6 64.4 89% 30.1 0.0
20 06:55 Calm 10.00 Overcast SCT050 OVC070 67.3 64.2 67.3 64.6 90% 30.1 0.0
20 06:35 Calm 10.00 Overcast SCT050 OVC070 67.1 63.7 89% 30.1 0.0
20 06:15 Calm 10.00 Overcast BKN070 OVC090 66.4 63.5 91% 30.09 0.0
20 05:55 Calm 10.00 Overcast BKN036 OVC060 66.7 63.5 89% 30.09 0.0
20 05:35 Calm 10.00 Mostly Cloudy BKN036 BKN060 65.3 63.3 93% 30.09 0.0
20 05:15 Calm 10.00 Partly Cloudy SCT060 SCT085 65.3 62.8 92% 30.09 0.0
20 04:55 Calm 10.00 Partly Cloudy SCT070 SCT085 65.5 63 92% 30.08 0.0
20 04:35 Calm 10.00 Overcast SCT070 OVC085 66.7 63.1 88% 30.08 0.0
20 04:15 Calm 10.00 Mostly Cloudy SCT070 BKN085 65.8 63 90% 30.07 0.0
20 03:55 Calm 10.00 Mostly Cloudy SCT070 BKN085 66.7 63.1 88% 30.07 0.0
20 03:35 Calm 10.00 Mostly Cloudy BKN060 66.7 63.3 89% 30.07 0.0
20 03:15 Calm 10.00 Overcast OVC060 65.8 63.5 92% 30.07 0.0
20 02:55 Calm 10.00 Overcast OVC060 66.4 63.5 91% 30.07 0.0
20 02:35 Calm 10.00 Overcast SCT049 OVC060 65.7 63.5 93% 30.07 0.0
20 02:15 Calm 10.00 Overcast OVC049 66.4 63.5 91% 30.07 0.0
20 01:55 Calm 10.00 Overcast BKN049 OVC060 66.9 63.9 90% 30.07 0.0
20 01:35 Calm 10.00 Overcast OVC049 67.1 63.7 89% 30.07 0.0
20 01:15 Calm 10.00 Overcast BKN047 OVC080 66.7 63.5 89% 30.07 0.0
20 00:55 Calm 10.00 Mostly Cloudy SCT047 BKN080 66.9 63.7 75.4 66.9 89% 30.07 0.0
20 00:35 Calm 10.00 Mostly Cloudy SCT047 SCT065 BKN090 68 63.1 85% 30.07 0.0
20 00:15 Calm 10.00 Overcast BKN047 OVC090 68.5 63 82% 30.07 0.0
19 23:55 Calm 10.00 Mostly Cloudy BKN045 BKN090 67.5 63.1 86% 30.08 0.0
19 23:35 Calm 10.00 Partly Cloudy SCT090 67.3 63 86% 30.07 0.0
19 23:15 Calm 10.00 Mostly Cloudy BKN080 68.5 63.3 84% 30.08 0.0
19 22:55 Calm 10.00 Mostly Cloudy SCT090 BKN110 68.9 63.1 82% 30.08 0.0
19 22:35 Calm 10.00 Overcast OVC095 70.2 63.5 80% 30.08 0.0
19 22:15 Calm 10.00 Overcast SCT041 OVC095 70.7 63.5 78% 30.08 0.0
19 21:55 Calm 5.00 Overcast with Haze BKN041 BKN050 OVC095 70.3 63.5 79% 30.08 0.0
19 21:35 Calm 10.00 Overcast BKN041 BKN050 OVC095 70.2 62.8 78% 30.07 0.0
19 21:15 Calm 10.00 Partly Cloudy SCT041 SCT070 SCT095 70 62.8 78% 30.07 0.0
19 20:55 Calm 10.00 Mostly Cloudy BKN070 73 61.9 68% 30.06 0.0
19 20:35 Calm 10.00 Overcast OVC070 74.3 61.5 65% 30.06 0.0
19 20:15 Calm 10.00 Overcast OVC060 74.3 61 63% 30.06 0.0
19 19:55 Calm 10.00 Overcast SCT048 OVC060 74.8 60.8 62% 30.06 0.0
19 19:35 Calm 10.00 Overcast SCT048 OVC060 74.8 60.4 61% 30.06 0.0
19 19:15 S 5 10.00 Overcast SCT044 OVC060 75.2 60.1 59% 77 30.06 0.0
19 18:55 S 5 10.00 Mostly Cloudy SCT044 BKN050 75.4 60.4 79.9 75.4 60% 78 30.06 0.0
19 18:35 S 3 10.00 Mostly Cloudy SCT044 SCT050 BKN080 76.3 60.8 59% 78 30.06 0.0
19 18:15 S 6 10.00 Overcast SCT050 BKN065 OVC080 77.2 60.8 57% 79 30.07 0.0
19 17:55 S 7 10.00 Overcast BKN050 OVC065 76.1 59.5 57% 78 30.08 0.0
19 17:35 S 7 10.00 Mostly Cloudy SCT050 BKN065 77 59 54% 79 30.08 0.0
19 17:15 S 9 10.00 Overcast SCT055 OVC065 76.8 58.5 53% 79 30.07 0.0
19 16:55 S 7 10.00 Mostly Cloudy SCT065 BKN075 77 59.7 55% 79 30.07 0.0
19 16:35 S 8 G 16 10.00 Partly Cloudy SCT075 77.5 60.6 56% 79 30.07 0.0
19 16:15 S 9 10.00 Partly Cloudy SCT055 SCT075 78.3 60.4 54% 80 30.07 0.0
19 15:55 S 5 10.00 Overcast OVC055 77.2 60.3 56% 79 30.07 0.0
19 15:35 S 5 10.00 Overcast OVC055 76.1 61.2 60% 78 30.07 0.0
19 15:15 S 6 G 10 10.00 Overcast BKN055 OVC070 76.5 60.4 58% 78 30.08 0.0
Date Time (cdt) Wind (mph) Vis. (mi.) Weather Sky Cond. Air Dwpt Max. Min. Relative Humidity Wind Chill (°F) Heat Index (°F) altimeter (in) sea level (mb) 1 hr 3 hr 6 hr
6 hour
Temperature (ºF) Pressure Precipitation (in)